Time,TemperatureF,DewpointF,PressureIn,WindDirection,WindDirectionDegrees,WindSpeedMPH,WindSpeedGustMPH,Humidity,HourlyPrecipIn,Conditions,Clouds,dailyrainin,SoftwareType,DateUTC
2013-06-22 00:01:00,71.6,61.7,30.06,WSW,248,0.0,0.0,71,0.00,,---,0.00,VWS V14.00,2013-06-22 04:01:00,
2013-06-22 00:02:00,71.6,61.7,30.06,WSW,248,1.1,1.1,71,0.00,,---,0.00,VWS V14.00,2013-06-22 04:02:00,
2013-06-22 00:03:00,71.4,61.5,30.06,WSW,248,0.9,1.6,71,0.00,,---,0.00,VWS V14.00,2013-06-22 04:03:00,
2013-06-22 00:08:00,71.4,61.5,30.06,WSW,248,0.9,1.1,71,0.00,,---,0.00,VWS V14.00,2013-06-22 04:08:00,
2013-06-22 00:13:00,71.4,61.5,30.06,WSW,248,0.0,0.0,71,0.00,,---,0.00,VWS V14.00,2013-06-22 04:13:00,
2013-06-22 00:18:00,71.4,61.9,30.06,WSW,248,0.0,0.0,72,0.00,,---,0.00,VWS V14.00,2013-06-22 04:18:00,
2013-06-22 00:23:00,71.2,61.8,30.06,WSW,248,0.0,0.0,72,0.00,,---,0.00,VWS V14.00,2013-06-22 04:23:00,
2013-06-22 00:28:00,71.2,61.8,30.06,WSW,248,0.0,0.0,72,0.00,,---,0.00,VWS V14.00,2013-06-22 04:28:00,
2013-06-22 00:33:00,71.1,61.6,30.06,WSW,248,0.0,0.0,72,0.00,,---,0.00,VWS V14.00,2013-06-22 04:33:00,
2013-06-22 00:38:00,70.9,61.8,30.06,WSW,248,0.0,0.0,73,0.00,,---,0.00,VWS V14.00,2013-06-22 04:38:00,
2013-06-22 00:43:00,70.9,61.8,30.06,WSW,248,0.0,0.0,73,0.00,,---,0.00,VWS V14.00,2013-06-22 04:43:00,
2013-06-22 00:48:00,70.7,62.0,30.06,WSW,248,0.0,0.0,74,0.00,,---,0.00,VWS V14.00,2013-06-22 04:48:00,
2013-06-22 00:53:00,70.5,61.8,30.06,WSW,248,0.0,0.0,74,0.00,,---,0.00,VWS V14.00,2013-06-22 04:53:00,
2013-06-22 00:58:00,70.5,61.8,30.06,WSW,248,0.0,0.0,74,0.00,,---,0.00,VWS V14.00,2013-06-22 04:58:00,
2013-06-22 01:03:00,70.5,62.2,30.06,WSW,248,0.0,0.0,75,0.00,,---,0.00,VWS V14.00,2013-06-22 05:03:00,
2013-06-22 01:08:00,70.3,62.0,30.06,WSW,248,0.0,0.0,75,0.00,,---,0.00,VWS V14.00,2013-06-22 05:08:00,
2013-06-22 01:13:00,70.3,62.0,30.03,WSW,248,0.0,0.0,75,0.00,,---,0.00,VWS V14.00,2013-06-22 05:13:00,
2013-06-22 01:18:00,70.2,61.9,30.03,WSW,248,0.0,0.0,75,0.00,,---,0.00,VWS V14.00,2013-06-22 05:18:00,
2013-06-22 01:23:00,70.2,61.9,30.03,WSW,248,0.0,0.0,75,0.00,,---,0.00,VWS V14.00,2013-06-22 05:23:00,
2013-06-22 01:28:00,70.2,62.2,30.06,WSW,248,0.0,0.0,76,0.00,,---,0.00,VWS V14.00,2013-06-22 05:28:00,
2013-06-22 01:33:00,70.0,62.1,30.06,WSW,248,0.0,0.0,76,0.00,,---,0.00,VWS V14.00,2013-06-22 05:33:00,
2013-06-22 01:38:00,70.0,62.1,30.06,WSW,248,0.0,0.0,76,0.00,,---,0.00,VWS V14.00,2013-06-22 05:38:00,
2013-06-22 01:43:00,70.0,62.1,30.06,WSW,248,0.0,0.0,76,0.00,,---,0.00,VWS V14.00,2013-06-22 05:43:00,
2013-06-22 01:48:00,69.8,62.3,30.06,WSW,248,0.0,0.0,77,0.00,,---,0.00,VWS V14.00,2013-06-22 05:48:00,
2013-06-22 01:53:00,69.8,62.3,30.06,WSW,248,0.0,0.0,77,0.00,,---,0.00,VWS V14.00,2013-06-22 05:53:00,
2013-06-22 01:58:00,70.0,62.8,30.03,WSW,248,0.0,0.0,78,0.00,,---,0.00,VWS V14.00,2013-06-22 05:58:00,
2013-06-22 02:03:00,70.0,62.8,30.03,WSW,248,0.0,0.0,78,0.00,,---,0.00,VWS V14.00,2013-06-22 06:03:00,
2013-06-22 02:08:00,70.0,63.2,30.03,SSE,158,0.0,0.0,79,0.00,,---,0.00,VWS V14.00,2013-06-22 06:08:00,
2013-06-22 02:13:00,70.0,63.2,30.00,SE,135,0.0,2.0,79,0.00,,---,0.00,VWS V14.00,2013-06-22 06:13:00,
2013-06-22 02:18:00,70.0,63.2,30.00,SE,135,0.0,0.0,79,0.00,,---,0.00,VWS V14.00,2013-06-22 06:18:00,
2013-06-22 02:23:00,70.0,62.8,30.00,SSE,158,1.6,1.6,78,0.00,,---,0.00,VWS V14.00,2013-06-22 06:23:00,
2013-06-22 02:28:00,70.0,62.8,29.97,SSE,158,0.0,0.0,78,0.00,,---,0.00,VWS V14.00,2013-06-22 06:28:00,
2013-06-22 02:33:00,70.0,62.8,29.97,SSE,158,0.0,0.0,78,0.00,,---,0.00,VWS V14.00,2013-06-22 06:33:00,
2013-06-22 02:38:00,70.0,62.8,29.97,SSE,158,0.0,0.0,78,0.00,,---,0.00,VWS V14.00,2013-06-22 06:38:00,
2013-06-22 02:43:00,69.8,63.0,29.97,SSE,158,0.9,1.1,79,0.00,,---,0.00,VWS V14.00,2013-06-22 06:43:00,
2013-06-22 02:48:00,69.8,63.0,29.97,SSE,158,0.0,0.0,79,0.00,,---,0.00,VWS V14.00,2013-06-22 06:48:00,
2013-06-22 02:53:00,69.8,63.0,29.97,SSE,158,0.0,0.0,79,0.00,,---,0.00,VWS V14.00,2013-06-22 06:53:00,
2013-06-22 02:58:00,69.8,62.6,29.97,SSE,158,0.0,0.0,78,0.00,,---,0.00,VWS V14.00,2013-06-22 06:58:00,
2013-06-22 03:03:00,69.8,63.0,29.97,SSE,158,0.9,2.2,79,0.00,,---,0.00,VWS V14.00,2013-06-22 07:03:00,
2013-06-22 03:08:00,70.0,63.2,29.97,South,180,0.0,0.0,79,0.00,,---,0.00,VWS V14.00,2013-06-22 07:08:00,
2013-06-22 03:13:00,70.0,63.2,30.00,South,180,0.0,0.0,79,0.00,,---,0.00,VWS V14.00,2013-06-22 07:13:00,
2013-06-22 03:18:00,70.0,63.2,30.00,South,180,0.0,0.0,79,0.00,,---,0.00,VWS V14.00,2013-06-22 07:18:00,
2013-06-22 03:23:00,70.0,63.2,30.00,South,180,0.0,1.6,79,0.00,,---,0.00,VWS V14.00,2013-06-22 07:23:00,
2013-06-22 03:29:00,70.0,63.2,30.00,South,180,1.1,1.3,79,0.00,,---,0.00,VWS V14.00,2013-06-22 07:29:00,
2013-06-22 03:34:00,70.2,63.3,30.00,South,180,0.0,0.0,79,0.00,,---,0.00,VWS V14.00,2013-06-22 07:34:00,
2013-06-22 03:39:00,70.2,63.3,30.00,SSW,202,0.0,0.0,79,0.00,,---,0.00,VWS V14.00,2013-06-22 07:39:00,
2013-06-22 03:43:00,70.0,63.2,30.00,SSW,202,0.0,0.0,79,0.00,,---,0.00,VWS V14.00,2013-06-22 07:43:00,
2013-06-22 03:49:00,70.0,63.2,30.00,SSW,202,1.3,1.3,79,0.00,,---,0.00,VWS V14.00,2013-06-22 07:49:00,
2013-06-22 03:54:00,70.0,63.2,30.00,South,180,0.0,1.6,79,0.00,,---,0.00,VWS V14.00,2013-06-22 07:54:00,
2013-06-22 03:59:00,69.8,63.0,30.00,South,180,1.3,1.3,79,0.00,,---,0.00,VWS V14.00,2013-06-22 07:59:00,
2013-06-22 04:04:00,69.8,63.0,30.00,SSW,202,0.0,0.0,79,0.00,,---,0.00,VWS V14.00,2013-06-22 08:04:00,
2013-06-22 04:09:00,69.8,63.0,30.00,WSW,248,0.0,0.0,79,0.00,,---,0.00,VWS V14.00,2013-06-22 08:09:00,
2013-06-22 04:14:00,69.8,63.0,29.97,ESE,112,2.2,2.2,79,0.00,,---,0.00,VWS V14.00,2013-06-22 08:14:00,
2013-06-22 04:19:00,69.8,63.0,29.97,SE,135,0.0,0.0,79,0.00,,---,0.00,VWS V14.00,2013-06-22 08:19:00,
2013-06-22 04:24:00,69.8,63.0,29.97,SSE,158,0.0,0.0,79,0.00,,---,0.00,VWS V14.00,2013-06-22 08:24:00,
2013-06-22 04:29:00,69.8,63.0,30.00,West,270,0.0,0.0,79,0.00,,---,0.00,VWS V14.00,2013-06-22 08:29:00,
2013-06-22 04:34:00,69.8,63.0,30.00,SSE,158,0.0,0.0,79,0.00,,---,0.00,VWS V14.00,2013-06-22 08:34:00,
2013-06-22 04:39:00,69.8,63.0,30.00,South,180,0.9,1.1,79,0.00,,---,0.00,VWS V14.00,2013-06-22 08:39:00,
2013-06-22 04:44:00,69.8,63.0,30.00,South,180,0.0,1.1,79,0.00,,---,0.00,VWS V14.00,2013-06-22 08:44:00,
2013-06-22 04:49:00,69.6,63.2,30.00,SE,135,0.0,0.0,80,0.00,,---,0.00,VWS V14.00,2013-06-22 08:49:00,
2013-06-22 04:54:00,69.6,63.2,30.00,South,180,0.0,0.0,80,0.00,,---,0.00,VWS V14.00,2013-06-22 08:54:00,
2013-06-22 04:59:00,69.8,63.4,30.00,SSE,158,0.0,1.6,80,0.00,,---,0.00,VWS V14.00,2013-06-22 08:59:00,
2013-06-22 05:04:00,69.8,63.0,30.00,South,180,0.0,0.0,79,0.00,,---,0.00,VWS V14.00,2013-06-22 09:04:00,
2013-06-22 05:09:00,69.6,63.2,30.00,South,180,0.0,0.0,80,0.00,,---,0.00,VWS V14.00,2013-06-22 09:09:00,
2013-06-22 05:14:00,69.8,63.4,30.00,WSW,248,0.0,0.0,80,0.00,,---,0.00,VWS V14.00,2013-06-22 09:14:00,
2013-06-22 05:18:00,69.8,63.0,30.00,WSW,248,1.6,2.5,79,0.00,,---,0.00,VWS V14.00,2013-06-22 09:18:00,
2013-06-22 05:24:00,69.8,63.0,30.00,West,270,0.0,0.0,79,0.00,,---,0.00,VWS V14.00,2013-06-22 09:24:00,
2013-06-22 05:29:00,69.8,63.0,30.00,West,270,0.0,0.0,79,0.00,,---,0.00,VWS V14.00,2013-06-22 09:29:00,
2013-06-22 05:34:00,69.8,63.4,30.00,SSW,202,0.0,0.0,80,0.00,,---,0.00,VWS V14.00,2013-06-22 09:34:00,
2013-06-22 05:39:00,70.0,63.2,30.00,SSW,202,0.0,0.0,79,0.00,,---,0.00,VWS V14.00,2013-06-22 09:39:00,
2013-06-22 05:44:00,70.0,63.2,30.00,West,270,0.0,0.0,79,0.00,,---,0.00,VWS V14.00,2013-06-22 09:44:00,
2013-06-22 05:49:00,70.2,63.3,30.00,West,270,0.0,0.0,79,0.00,,---,0.00,VWS V14.00,2013-06-22 09:49:00,
2013-06-22 05:54:00,70.2,63.3,29.97,West,270,0.0,0.0,79,0.00,,---,0.00,VWS V14.00,2013-06-22 09:54:00,
2013-06-22 05:59:00,70.3,63.5,29.97,West,270,0.0,0.0,79,0.00,,---,0.00,VWS V14.00,2013-06-22 09:59:00,
2013-06-22 06:04:00,70.3,63.5,29.97,West,270,0.0,0.0,79,0.00,,---,0.00,VWS V14.00,2013-06-22 10:04:00,
2013-06-22 06:09:00,70.3,63.5,30.00,West,270,0.0,0.0,79,0.00,,---,0.00,VWS V14.00,2013-06-22 10:09:00,
2013-06-22 06:14:00,70.3,63.5,30.00,West,270,0.0,0.0,79,0.00,,---,0.00,VWS V14.00,2013-06-22 10:14:00,
2013-06-22 06:19:00,70.2,63.3,30.00,West,270,0.0,0.0,79,0.00,,---,0.00,VWS V14.00,2013-06-22 10:19:00,
2013-06-22 06:24:00,70.2,63.3,30.00,West,270,0.0,0.0,79,0.00,,---,0.00,VWS V14.00,2013-06-22 10:24:00,
2013-06-22 06:29:00,70.2,63.3,30.00,West,270,0.0,0.0,79,0.00,,---,0.00,VWS V14.00,2013-06-22 10:29:00,
2013-06-22 06:34:00,70.2,63.7,30.00,South,180,1.6,2.7,80,0.00,,---,0.00,VWS V14.00,2013-06-22 10:34:00,
2013-06-22 06:39:00,70.3,63.9,30.00,SSW,202,0.0,0.9,80,0.00,,---,0.00,VWS V14.00,2013-06-22 10:39:00,
2013-06-22 06:45:00,70.5,64.1,30.00,WSW,248,0.9,2.5,80,0.00,,---,0.00,VWS V14.00,2013-06-22 10:45:00,
2013-06-22 06:49:00,70.7,64.2,30.00,SW,225,0.0,0.0,80,0.00,,---,0.00,VWS V14.00,2013-06-22 10:49:00,
2013-06-22 06:55:00,70.9,64.8,30.00,South,180,0.0,1.6,81,0.00,,---,0.00,VWS V14.00,2013-06-22 10:55:00,
2013-06-22 07:00:00,70.9,64.4,30.00,WNW,292,2.2,2.2,80,0.00,,---,0.00,VWS V14.00,2013-06-22 11:00:00,
2013-06-22 07:05:00,71.1,64.9,30.00,SW,225,1.1,2.7,81,0.00,,---,0.00,VWS V14.00,2013-06-22 11:05:00,
2013-06-22 07:09:00,71.2,65.1,30.00,SW,225,1.3,1.6,81,0.00,,---,0.00,VWS V14.00,2013-06-22 11:09:00,
2013-06-22 07:15:00,71.2,65.1,30.00,West,270,1.6,1.6,81,0.00,,---,0.00,VWS V14.00,2013-06-22 11:15:00,
2013-06-22 07:20:00,71.2,65.1,30.00,NW,315,3.6,3.6,81,0.00,,---,0.00,VWS V14.00,2013-06-22 11:20:00,
2013-06-22 07:25:00,71.4,65.3,30.00,SSE,158,1.6,2.0,81,0.00,,---,0.00,VWS V14.00,2013-06-22 11:25:00,
2013-06-22 07:30:00,71.4,65.3,30.00,SSW,202,0.0,2.7,81,0.00,,---,0.00,VWS V14.00,2013-06-22 11:30:00,
2013-06-22 07:35:00,71.6,65.1,30.00,WSW,248,0.0,1.6,80,0.00,,---,0.00,VWS V14.00,2013-06-22 11:35:00,
2013-06-22 07:40:00,71.6,65.5,29.97,West,270,2.2,2.5,81,0.00,,---,0.00,VWS V14.00,2013-06-22 11:40:00,
2013-06-22 07:45:00,71.8,65.3,29.97,West,270,0.9,1.1,80,0.00,,---,0.00,VWS V14.00,2013-06-22 11:45:00,
2013-06-22 07:50:00,71.8,65.3,29.97,SW,225,0.0,0.0,80,0.00,,---,0.00,VWS V14.00,2013-06-22 11:50:00,
2013-06-22 07:55:00,72.0,65.5,30.06,SSW,202,1.1,2.0,80,0.00,,---,0.00,VWS V14.00,2013-06-22 11:55:00,
2013-06-22 08:00:00,72.0,65.5,30.06,WSW,248,2.5,2.9,80,0.00,,---,0.00,VWS V14.00,2013-06-22 12:00:00,
2013-06-22 08:05:00,72.1,65.6,30.06,SSW,202,0.0,0.0,80,0.00,,---,0.00,VWS V14.00,2013-06-22 12:05:00,
2013-06-22 08:09:00,72.3,65.8,30.06,WSW,248,0.9,0.9,80,0.00,,---,0.00,VWS V14.00,2013-06-22 12:09:00,
2013-06-22 08:14:00,72.5,66.0,30.06,WSW,248,0.9,1.3,80,0.00,,---,0.00,VWS V14.00,2013-06-22 12:14:00,
2013-06-22 08:20:00,72.7,66.2,30.06,WSW,248,0.0,0.0,80,0.00,,---,0.00,VWS V14.00,2013-06-22 12:20:00,
2013-06-22 08:25:00,72.9,66.3,30.03,West,270,0.9,2.5,80,0.00,,---,0.00,VWS V14.00,2013-06-22 12:25:00,
2013-06-22 08:30:00,73.0,66.5,30.03,WSW,248,0.9,2.5,80,0.00,,---,0.00,VWS V14.00,2013-06-22 12:30:00,
2013-06-22 08:35:00,73.2,66.7,30.03,WSW,248,0.0,0.0,80,0.00,,---,0.00,VWS V14.00,2013-06-22 12:35:00,
2013-06-22 08:40:00,73.6,66.7,30.06,WSW,248,2.0,2.0,79,0.00,,---,0.00,VWS V14.00,2013-06-22 12:40:00,
2013-06-22 08:45:00,74.1,67.6,30.06,SW,225,1.6,2.0,80,0.00,,---,0.00,VWS V14.00,2013-06-22 12:45:00,
2013-06-22 08:50:00,74.5,67.6,30.06,SSW,202,0.0,1.3,79,0.00,,---,0.00,VWS V14.00,2013-06-22 12:50:00,
2013-06-22 08:55:00,74.8,67.9,30.06,WSW,248,1.1,2.9,79,0.00,,---,0.00,VWS V14.00,2013-06-22 12:55:00,
2013-06-22 09:00:00,75.2,67.9,30.06,SW,225,1.1,5.4,78,0.00,,---,0.00,VWS V14.00,2013-06-22 13:00:00,
2013-06-22 09:05:00,75.4,68.1,30.06,WNW,292,3.1,3.1,78,0.00,,---,0.00,VWS V14.00,2013-06-22 13:05:00,
2013-06-22 09:10:00,75.4,67.7,30.09,West,270,0.0,2.0,77,0.00,,---,0.00,VWS V14.00,2013-06-22 13:10:00,
2013-06-22 09:15:00,75.6,67.8,30.09,WSW,248,1.6,2.7,77,0.00,,---,0.00,VWS V14.00,2013-06-22 13:15:00,
2013-06-22 09:20:00,75.7,68.0,30.09,SSW,202,0.0,2.2,77,0.00,,---,0.00,VWS V14.00,2013-06-22 13:20:00,
2013-06-22 09:25:00,75.7,68.0,30.06,SSW,202,0.0,0.0,77,0.00,,---,0.00,VWS V14.00,2013-06-22 13:25:00,
2013-06-22 09:31:00,75.9,68.2,30.06,West,270,3.4,3.6,77,0.00,,---,0.00,VWS V14.00,2013-06-22 13:31:00,
2013-06-22 09:36:00,76.1,68.0,30.06,WSW,248,1.3,2.0,76,0.00,,---,0.00,VWS V14.00,2013-06-22 13:36:00,
2013-06-22 09:40:00,76.3,68.2,30.06,SSW,202,1.3,2.5,76,0.00,,---,0.00,VWS V14.00,2013-06-22 13:40:00,
2013-06-22 09:46:00,76.6,68.5,30.06,WSW,248,0.9,1.1,76,0.00,,---,0.00,VWS V14.00,2013-06-22 13:46:00,
2013-06-22 09:51:00,77.0,68.9,30.06,SW,225,1.1,1.6,76,0.00,,---,0.00,VWS V14.00,2013-06-22 13:51:00,
2013-06-22 09:55:00,77.4,68.8,30.06,West,270,0.9,2.7,75,0.00,,---,0.00,VWS V14.00,2013-06-22 13:55:00,
2013-06-22 10:01:00,77.5,69.0,30.06,SW,225,2.0,2.0,75,0.00,,---,0.00,VWS V14.00,2013-06-22 14:01:00,
2013-06-22 10:06:00,77.4,68.4,30.06,SW,225,0.9,2.9,74,0.00,,---,0.00,VWS V14.00,2013-06-22 14:06:00,
2013-06-22 10:11:00,77.2,67.9,30.06,WSW,248,2.0,2.2,73,0.00,,---,0.00,VWS V14.00,2013-06-22 14:11:00,
2013-06-22 10:15:00,77.0,67.3,30.06,West,270,1.6,2.9,72,0.00,,---,0.00,VWS V14.00,2013-06-22 14:15:00,
2013-06-22 10:21:00,77.2,67.5,30.06,WSW,248,1.1,2.7,72,0.00,,---,0.00,VWS V14.00,2013-06-22 14:21:00,
2013-06-22 10:26:00,77.4,67.6,30.06,West,270,2.9,2.9,72,0.00,,---,0.00,VWS V14.00,2013-06-22 14:26:00,
2013-06-22 10:31:00,77.5,67.8,30.06,WSW,248,0.0,0.9,72,0.00,,---,0.00,VWS V14.00,2013-06-22 14:31:00,
2013-06-22 10:36:00,77.4,67.6,30.06,SW,225,2.0,2.0,72,0.00,,---,0.00,VWS V14.00,2013-06-22 14:36:00,
2013-06-22 10:41:00,77.4,67.6,30.06,North,0,1.1,1.3,72,0.00,,---,0.00,VWS V14.00,2013-06-22 14:41:00,
2013-06-22 10:46:00,76.8,67.1,30.06,West,270,0.0,0.9,72,0.00,,---,0.00,VWS V14.00,2013-06-22 14:46:00,
2013-06-22 10:51:00,76.3,66.6,30.06,WSW,248,1.3,1.3,72,0.00,,---,0.00,VWS V14.00,2013-06-22 14:51:00,
2013-06-22 10:56:00,76.3,67.0,30.06,WNW,292,0.0,0.0,73,0.00,,---,0.00,VWS V14.00,2013-06-22 14:56:00,
2013-06-22 11:01:00,76.1,66.8,30.06,SW,225,1.1,1.1,73,0.00,,---,0.00,VWS V14.00,2013-06-22 15:01:00,
2013-06-22 11:06:00,76.1,67.2,30.06,West,270,1.3,1.3,74,0.00,,---,0.00,VWS V14.00,2013-06-22 15:06:00,
2013-06-22 11:11:00,75.7,66.9,30.06,WSW,248,0.0,0.0,74,0.00,,---,0.00,VWS V14.00,2013-06-22 15:11:00,
2013-06-22 11:16:00,75.6,66.7,30.06,WSW,248,0.0,0.0,74,0.00,,---,0.00,VWS V14.00,2013-06-22 15:16:00,
2013-06-22 11:21:00,75.6,67.1,30.06,WSW,248,0.0,1.6,75,0.00,,---,0.00,VWS V14.00,2013-06-22 15:21:00,
2013-06-22 11:26:00,75.7,66.9,30.06,West,270,0.0,0.0,74,0.00,,---,0.00,VWS V14.00,2013-06-22 15:26:00,
2013-06-22 11:31:00,75.7,66.9,30.06,WSW,248,1.1,1.1,74,0.00,,---,0.00,VWS V14.00,2013-06-22 15:31:00,
2013-06-22 11:36:00,75.7,66.9,30.06,WSW,248,1.6,1.6,74,0.00,,---,0.00,VWS V14.00,2013-06-22 15:36:00,
2013-06-22 11:41:00,75.7,66.9,30.06,NW,315,0.0,0.0,74,0.00,,---,0.00,VWS V14.00,2013-06-22 15:41:00,
2013-06-22 11:46:00,75.9,67.4,30.06,NE,45,1.1,2.5,75,0.00,,---,0.00,VWS V14.00,2013-06-22 15:46:00,
2013-06-22 11:51:00,75.9,67.4,30.06,SE,135,1.3,1.3,75,0.00,,---,0.00,VWS V14.00,2013-06-22 15:51:00,
2013-06-22 11:56:00,76.1,67.6,30.06,SSE,158,0.0,0.0,75,0.00,,---,0.00,VWS V14.00,2013-06-22 15:56:00,
2013-06-22 12:01:00,76.6,67.7,30.06,SSE,158,0.0,0.0,74,0.00,,---,0.00,VWS V14.00,2013-06-22 16:01:00,
2013-06-22 12:06:00,77.0,68.1,30.06,SSE,158,0.0,0.0,74,0.00,,---,0.00,VWS V14.00,2013-06-22 16:06:00,
2013-06-22 12:11:00,77.7,68.8,30.06,South,180,0.0,1.1,74,0.00,,---,0.00,VWS V14.00,2013-06-22 16:11:00,
2013-06-22 12:16:00,78.3,69.3,30.06,WSW,248,0.0,2.0,74,0.00,,---,0.00,VWS V14.00,2013-06-22 16:16:00,
2013-06-22 12:21:00,78.6,68.8,30.06,SW,225,0.0,0.0,72,0.00,,---,0.00,VWS V14.00,2013-06-22 16:21:00,
2013-06-22 12:26:00,78.4,68.3,30.06,South,180,0.0,0.0,71,0.00,,---,0.00,VWS V14.00,2013-06-22 16:26:00,
2013-06-22 12:31:00,78.6,68.4,30.06,SSW,202,0.0,0.0,71,0.00,,---,0.00,VWS V14.00,2013-06-22 16:31:00,
2013-06-22 12:36:00,78.8,68.2,30.06,WSW,248,0.0,0.0,70,0.00,,---,0.00,VWS V14.00,2013-06-22 16:36:00,
2013-06-22 12:41:00,78.6,68.0,30.06,SW,225,1.1,1.3,70,0.00,,---,0.00,VWS V14.00,2013-06-22 16:41:00,
2013-06-22 12:46:00,78.8,67.8,30.06,NW,315,0.0,1.3,69,0.00,,---,0.00,VWS V14.00,2013-06-22 16:46:00,
2013-06-22 12:51:00,79.3,68.7,30.06,WSW,248,0.0,0.0,70,0.00,,---,0.00,VWS V14.00,2013-06-22 16:51:00,
2013-06-22 12:56:00,80.1,69.4,30.06,West,270,2.0,2.7,70,0.00,,---,0.00,VWS V14.00,2013-06-22 16:56:00,
2013-06-22 13:01:00,81.0,69.4,30.06,WSW,248,0.0,0.0,68,0.00,,---,0.00,VWS V14.00,2013-06-22 17:01:00,
2013-06-22 13:06:00,81.3,68.9,30.06,West,270,1.1,1.3,66,0.00,,---,0.00,VWS V14.00,2013-06-22 17:06:00,
2013-06-22 13:11:00,80.4,68.5,30.06,SSE,158,0.0,0.0,67,0.00,,---,0.00,VWS V14.00,2013-06-22 17:11:00,
2013-06-22 13:16:00,80.1,67.7,30.06,SW,225,0.0,0.9,66,0.00,,---,0.00,VWS V14.00,2013-06-22 17:16:00,
2013-06-22 13:21:00,80.2,68.3,30.06,SSW,202,1.3,3.1,67,0.00,,---,0.00,VWS V14.00,2013-06-22 17:21:00,
2013-06-22 13:26:00,81.1,69.2,30.06,SSW,202,1.6,2.5,67,0.00,,---,0.00,VWS V14.00,2013-06-22 17:26:00,
2013-06-22 13:31:00,81.5,69.1,30.06,ENE,68,2.0,2.5,66,0.00,,---,0.00,VWS V14.00,2013-06-22 17:31:00,
2013-06-22 13:36:00,81.9,68.9,30.06,WNW,292,0.0,0.0,65,0.00,,---,0.00,VWS V14.00,2013-06-22 17:36:00,
2013-06-22 13:41:00,82.0,67.8,30.06,East,90,0.0,1.1,62,0.00,,---,0.00,VWS V14.00,2013-06-22 17:41:00,
2013-06-22 13:46:00,83.3,69.4,30.06,North,0,2.5,2.5,63,0.00,,---,0.00,VWS V14.00,2013-06-22 17:46:00,
2013-06-22 13:51:00,83.1,68.8,30.06,SE,135,0.9,2.5,62,0.00,,---,0.00,VWS V14.00,2013-06-22 17:51:00,
2013-06-22 13:56:00,82.6,67.8,30.06,SE,135,1.1,1.1,61,0.00,,---,0.00,VWS V14.00,2013-06-22 17:56:00,
2013-06-22 14:01:00,82.4,68.1,30.06,West,270,1.1,3.4,62,0.00,,---,0.00,VWS V14.00,2013-06-22 18:01:00,
2013-06-22 14:06:00,82.8,67.9,30.06,West,270,1.1,1.3,61,0.00,,---,0.00,VWS V14.00,2013-06-22 18:06:00,
2013-06-22 14:11:00,82.6,68.2,30.03,SW,225,0.0,1.1,62,0.00,,---,0.00,VWS V14.00,2013-06-22 18:11:00,
2013-06-22 14:16:00,82.2,68.4,30.03,WNW,292,1.3,1.3,63,0.00,,---,0.00,VWS V14.00,2013-06-22 18:16:00,
2013-06-22 14:21:00,82.2,68.4,30.03,WSW,248,1.3,1.3,63,0.00,,---,0.00,VWS V14.00,2013-06-22 18:21:00,
2013-06-22 14:26:00,81.9,68.5,30.06,SW,225,1.3,1.3,64,0.00,,---,0.00,VWS V14.00,2013-06-22 18:26:00,
2013-06-22 14:31:00,82.0,68.2,30.06,West,270,1.1,3.1,63,0.00,,---,0.00,VWS V14.00,2013-06-22 18:31:00,
2013-06-22 14:37:00,81.5,67.7,30.06,NW,315,1.1,1.6,63,0.00,,---,0.00,VWS V14.00,2013-06-22 18:37:00,
2013-06-22 14:42:00,81.3,67.5,30.06,WSW,248,0.9,3.1,63,0.00,,---,0.00,VWS V14.00,2013-06-22 18:42:00,
2013-06-22 14:47:00,81.1,67.8,30.06,WSW,248,2.0,2.0,64,0.00,,---,0.00,VWS V14.00,2013-06-22 18:47:00,
2013-06-22 14:52:00,81.3,68.0,30.06,South,180,2.0,2.0,64,0.00,,---,0.00,VWS V14.00,2013-06-22 18:52:00,
2013-06-22 14:57:00,81.3,68.0,30.03,South,180,1.3,1.3,64,0.00,,---,0.00,VWS V14.00,2013-06-22 18:57:00,
2013-06-22 15:02:00,81.5,68.6,30.03,SSE,158,1.6,1.6,65,0.00,,---,0.00,VWS V14.00,2013-06-22 19:02:00,
2013-06-22 15:07:00,81.7,68.8,30.03,South,180,2.0,2.2,65,0.00,,---,0.00,VWS V14.00,2013-06-22 19:07:00,
2013-06-22 15:12:00,81.7,68.8,30.00,SSE,158,2.5,2.5,65,0.00,,---,0.00,VWS V14.00,2013-06-22 19:12:00,
2013-06-22 15:17:00,81.7,68.8,30.00,SSW,202,0.0,0.0,65,0.00,,---,0.00,VWS V14.00,2013-06-22 19:17:00,
2013-06-22 15:22:00,81.9,68.9,30.00,SW,225,0.0,0.0,65,0.00,,---,0.00,VWS V14.00,2013-06-22 19:22:00,
2013-06-22 15:27:00,82.0,69.1,30.00,SSW,202,1.1,1.1,65,0.00,,---,0.00,VWS V14.00,2013-06-22 19:27:00,
2013-06-22 15:32:00,82.2,68.4,30.00,SSE,158,0.9,2.7,63,0.00,,---,0.00,VWS V14.00,2013-06-22 19:32:00,
2013-06-22 15:37:00,82.0,68.2,30.00,West,270,0.0,2.2,63,0.00,,---,0.00,VWS V14.00,2013-06-22 19:37:00,
2013-06-22 15:42:00,82.0,68.7,30.00,West,270,0.0,0.0,64,0.00,,---,0.00,VWS V14.00,2013-06-22 19:42:00,
2013-06-22 15:47:00,82.2,68.8,30.00,South,180,0.0,1.6,64,0.00,,---,0.00,VWS V14.00,2013-06-22 19:47:00,
2013-06-22 15:53:00,82.4,68.6,30.00,SW,225,0.0,0.0,63,0.00,,---,0.00,VWS V14.00,2013-06-22 19:53:00,
2013-06-22 15:58:00,82.8,69.3,29.97,SSE,158,2.9,2.9,64,0.00,,---,0.00,VWS V14.00,2013-06-22 19:58:00,
2013-06-22 16:03:00,83.1,69.2,29.97,SSE,158,1.6,2.5,63,0.00,,---,0.00,VWS V14.00,2013-06-22 20:03:00,
2013-06-22 16:08:00,82.9,69.1,29.97,SE,135,0.0,0.0,63,0.00,,---,0.00,VWS V14.00,2013-06-22 20:08:00,
2013-06-22 16:13:00,83.1,69.2,29.97,SSE,158,1.6,1.6,63,0.00,,---,0.00,VWS V14.00,2013-06-22 20:13:00,
2013-06-22 16:18:00,83.3,68.9,29.97,SSW,202,0.0,0.0,62,0.00,,---,0.00,VWS V14.00,2013-06-22 20:18:00,
2013-06-22 16:23:00,83.3,68.5,29.97,ESE,112,1.3,1.3,61,0.00,,---,0.00,VWS V14.00,2013-06-22 20:23:00,
2013-06-22 16:28:00,83.5,68.6,29.94,SSE,158,2.5,2.5,61,0.00,,---,0.00,VWS V14.00,2013-06-22 20:28:00,
2013-06-22 16:33:00,83.8,69.4,29.94,SSW,202,0.9,0.9,62,0.00,,---,0.00,VWS V14.00,2013-06-22 20:33:00,
2013-06-22 16:38:00,84.4,69.9,29.94,SSW,202,0.0,0.0,62,0.00,,---,0.00,VWS V14.00,2013-06-22 20:38:00,
2013-06-22 16:43:00,84.6,70.1,29.94,South,180,3.8,3.8,62,0.00,,---,0.00,VWS V14.00,2013-06-22 20:43:00,
2013-06-22 16:48:00,84.7,68.8,29.94,SSE,158,1.6,4.3,59,0.00,,---,0.00,VWS V14.00,2013-06-22 20:48:00,
2013-06-22 16:53:00,84.9,69.5,29.94,NW,315,3.6,3.6,60,0.00,,---,0.00,VWS V14.00,2013-06-22 20:53:00,
2013-06-22 16:58:00,84.9,69.0,29.94,SE,135,2.7,4.0,59,0.00,,---,0.00,VWS V14.00,2013-06-22 20:58:00,
2013-06-22 17:03:00,84.7,69.3,29.94,ENE,68,1.1,2.5,60,0.00,,---,0.00,VWS V14.00,2013-06-22 21:03:00,
2013-06-22 17:08:00,84.7,68.8,29.94,SSE,158,3.1,3.1,59,0.00,,---,0.00,VWS V14.00,2013-06-22 21:08:00,
2013-06-22 17:13:00,84.9,68.5,29.91,SE,135,3.4,5.6,58,0.00,,---,0.00,VWS V14.00,2013-06-22 21:13:00,
2013-06-22 17:18:00,84.9,69.0,29.91,SSE,158,1.3,2.5,59,0.00,,---,0.00,VWS V14.00,2013-06-22 21:18:00,
2013-06-22 17:23:00,84.4,68.0,29.91,ESE,112,1.3,3.8,58,0.00,,---,0.00,VWS V14.00,2013-06-22 21:23:00,
2013-06-22 17:29:00,84.7,69.3,29.91,SE,135,3.6,3.6,60,0.00,,---,0.00,VWS V14.00,2013-06-22 21:29:00,
2013-06-22 17:34:00,84.6,68.2,29.91,SSE,158,2.9,2.9,58,0.00,,---,0.00,VWS V14.00,2013-06-22 21:34:00,
2013-06-22 17:39:00,84.7,68.3,29.91,SSE,158,0.0,1.1,58,0.00,,---,0.00,VWS V14.00,2013-06-22 21:39:00,
2013-06-22 17:44:00,85.3,69.3,29.91,SSE,158,3.4,4.0,59,0.00,,---,0.00,VWS V14.00,2013-06-22 21:44:00,
2013-06-22 17:49:00,84.9,68.5,29.91,NW,315,2.0,2.0,58,0.00,,---,0.00,VWS V14.00,2013-06-22 21:49:00,
2013-06-22 17:54:00,85.3,69.3,29.94,SSE,158,2.7,2.7,59,0.00,,---,0.00,VWS V14.00,2013-06-22 21:54:00,
2013-06-22 17:59:00,85.3,68.8,29.94,South,180,0.9,1.1,58,0.00,,---,0.00,VWS V14.00,2013-06-22 21:59:00,
2013-06-22 18:04:00,85.1,68.7,29.94,SSW,202,0.0,1.6,58,0.00,,---,0.00,VWS V14.00,2013-06-22 22:04:00,
2013-06-22 18:09:00,85.1,68.7,29.94,NE,45,0.0,2.2,58,0.00,,---,0.00,VWS V14.00,2013-06-22 22:09:00,
2013-06-22 18:14:00,84.4,68.0,29.94,SSW,202,0.0,2.7,58,0.00,,---,0.00,VWS V14.00,2013-06-22 22:14:00,
2013-06-22 18:19:00,84.4,68.5,29.94,North,0,1.6,1.6,59,0.00,,---,0.00,VWS V14.00,2013-06-22 22:19:00,
2013-06-22 18:24:00,84.4,69.0,29.91,South,180,2.9,2.9,60,0.00,,---,0.00,VWS V14.00,2013-06-22 22:24:00,
2013-06-22 18:29:00,84.4,69.0,29.91,SSE,158,1.1,2.5,60,0.00,,---,0.00,VWS V14.00,2013-06-22 22:29:00,
2013-06-22 18:34:00,84.4,69.5,29.91,SE,135,2.7,2.7,61,0.00,,---,0.00,VWS V14.00,2013-06-22 22:34:00,
2013-06-22 18:39:00,84.4,69.5,29.94,South,180,0.0,1.3,61,0.00,,---,0.00,VWS V14.00,2013-06-22 22:39:00,
2013-06-22 18:44:00,84.0,69.6,29.94,South,180,0.0,0.0,62,0.00,,---,0.00,VWS V14.00,2013-06-22 22:44:00,
2013-06-22 18:49:00,84.0,69.6,29.94,SW,225,0.0,1.1,62,0.00,,---,0.00,VWS V14.00,2013-06-22 22:49:00,
2013-06-22 18:54:00,84.2,69.8,29.94,WSW,248,2.0,2.0,62,0.00,,---,0.00,VWS V14.00,2013-06-22 22:54:00,
2013-06-22 18:59:00,84.4,69.9,29.94,South,180,0.0,2.7,62,0.00,,---,0.00,VWS V14.00,2013-06-22 22:59:00,
2013-06-22 19:04:00,84.4,70.4,29.94,West,270,2.0,2.0,63,0.00,,---,0.00,VWS V14.00,2013-06-22 23:04:00,
2013-06-22 19:09:00,84.4,70.4,29.94,SSW,202,0.0,0.0,63,0.00,,---,0.00,VWS V14.00,2013-06-22 23:09:00,
2013-06-22 19:14:00,84.2,70.2,29.94,SSW,202,0.9,0.9,63,0.00,,---,0.00,VWS V14.00,2013-06-22 23:14:00,
2013-06-22 19:19:00,84.0,70.1,29.94,SW,225,0.0,2.5,63,0.00,,---,0.00,VWS V14.00,2013-06-22 23:19:00,
2013-06-22 19:24:00,84.0,70.1,29.94,WSW,248,1.1,1.1,63,0.00,,---,0.00,VWS V14.00,2013-06-22 23:24:00,
2013-06-22 19:29:00,83.8,70.4,29.94,SW,225,1.3,2.0,64,0.00,,---,0.00,VWS V14.00,2013-06-22 23:29:00,
2013-06-22 19:34:00,83.7,69.7,29.94,SW,225,0.0,0.0,63,0.00,,---,0.00,VWS V14.00,2013-06-22 23:34:00,
2013-06-22 19:39:00,83.5,70.0,29.94,West,270,2.5,2.5,64,0.00,,---,0.00,VWS V14.00,2013-06-22 23:39:00,
2013-06-22 19:44:00,83.3,69.9,29.94,SW,225,0.0,0.0,64,0.00,,---,0.00,VWS V14.00,2013-06-22 23:44:00,
2013-06-22 19:49:00,82.8,68.9,29.94,WSW,248,0.0,3.1,63,0.00,,---,0.00,VWS V14.00,2013-06-22 23:49:00,
2013-06-22 19:54:00,82.4,69.0,29.94,SW,225,0.0,2.5,64,0.00,,---,0.00,VWS V14.00,2013-06-22 23:54:00,
2013-06-22 19:59:00,82.0,69.1,29.94,SSW,202,0.0,1.1,65,0.00,,---,0.00,VWS V14.00,2013-06-22 23:59:00,
2013-06-22 20:04:00,81.9,68.9,29.94,SW,225,0.0,0.0,65,0.00,,---,0.00,VWS V14.00,2013-06-23 00:04:00,
2013-06-22 20:09:00,81.7,69.2,29.94,WSW,248,1.1,1.1,66,0.00,,---,0.00,VWS V14.00,2013-06-23 00:09:00,
2013-06-22 20:14:00,81.7,69.2,29.94,West,270,0.0,2.5,66,0.00,,---,0.00,VWS V14.00,2013-06-23 00:14:00,
2013-06-22 20:19:00,81.5,69.1,29.94,WSW,248,0.0,1.3,66,0.00,,---,0.00,VWS V14.00,2013-06-23 00:19:00,
2013-06-22 20:24:00,81.3,69.3,29.94,SW,225,0.0,0.0,67,0.00,,---,0.00,VWS V14.00,2013-06-23 00:24:00,
2013-06-22 20:29:00,81.1,69.2,29.94,SW,225,0.0,0.0,67,0.00,,---,0.00,VWS V14.00,2013-06-23 00:29:00,
2013-06-22 20:34:00,81.0,69.0,29.94,SW,225,0.0,0.0,67,0.00,,---,0.00,VWS V14.00,2013-06-23 00:34:00,
2013-06-22 20:39:00,81.0,69.4,29.94,WSW,248,0.9,1.3,68,0.00,,---,0.00,VWS V14.00,2013-06-23 00:39:00,
2013-06-22 20:44:00,80.8,69.2,29.94,SW,225,0.0,0.0,68,0.00,,---,0.00,VWS V14.00,2013-06-23 00:44:00,
2013-06-22 20:49:00,80.6,69.1,29.94,West,270,0.0,1.3,68,0.00,,---,0.00,VWS V14.00,2013-06-23 00:49:00,
2013-06-22 20:54:00,80.4,69.3,29.94,West,270,0.0,0.0,69,0.00,,---,0.00,VWS V14.00,2013-06-23 00:54:00,
2013-06-22 20:59:00,80.2,69.2,29.94,West,270,0.0,0.0,69,0.00,,---,0.00,VWS V14.00,2013-06-23 00:59:00,
2013-06-22 21:04:00,80.2,69.2,29.94,WSW,248,0.0,0.0,69,0.00,,---,0.00,VWS V14.00,2013-06-23 01:04:00,
2013-06-22 21:09:00,80.1,69.0,29.94,WSW,248,0.0,0.0,69,0.00,,---,0.00,VWS V14.00,2013-06-23 01:09:00,
2013-06-22 21:14:00,79.9,69.2,29.94,WSW,248,0.0,0.0,70,0.00,,---,0.00,VWS V14.00,2013-06-23 01:14:00,
2013-06-22 21:19:00,79.7,69.1,29.94,WSW,248,0.0,0.0,70,0.00,,---,0.00,VWS V14.00,2013-06-23 01:19:00,
2013-06-22 21:24:00,79.5,68.9,29.94,WSW,248,0.0,0.0,70,0.00,,---,0.00,VWS V14.00,2013-06-23 01:24:00,
2013-06-22 21:29:00,79.3,69.1,29.94,WSW,248,0.0,0.0,71,0.00,,---,0.00,VWS V14.00,2013-06-23 01:29:00,
2013-06-22 21:34:00,79.2,68.9,29.94,WSW,248,0.0,0.0,71,0.00,,---,0.00,VWS V14.00,2013-06-23 01:34:00,
2013-06-22 21:39:00,79.2,69.4,29.97,WSW,248,0.0,0.0,72,0.00,,---,0.00,VWS V14.00,2013-06-23 01:39:00,
2013-06-22 21:44:00,79.2,69.8,29.97,SSE,158,0.0,0.0,73,0.00,,---,0.00,VWS V14.00,2013-06-23 01:44:00,
2013-06-22 21:49:00,79.0,69.6,29.97,WSW,248,0.0,0.0,73,0.00,,---,0.00,VWS V14.00,2013-06-23 01:49:00,
2013-06-22 21:54:00,79.0,69.6,29.94,SW,225,0.0,0.0,73,0.00,,---,0.00,VWS V14.00,2013-06-23 01:54:00,
2013-06-22 21:59:00,78.8,69.4,29.94,SW,225,0.0,0.0,73,0.00,,---,0.00,VWS V14.00,2013-06-23 01:59:00,
2013-06-22 22:04:00,78.8,69.8,29.94,WSW,248,0.0,0.0,74,0.00,,---,0.00,VWS V14.00,2013-06-23 02:04:00,
2013-06-22 22:09:00,78.8,69.8,29.97,WSW,248,0.0,0.0,74,0.00,,---,0.00,VWS V14.00,2013-06-23 02:09:00,
2013-06-22 22:14:00,78.8,69.8,29.97,WSW,248,1.1,1.1,74,0.00,,---,0.00,VWS V14.00,2013-06-23 02:14:00,
2013-06-22 22:19:00,78.8,70.2,29.97,SW,225,0.0,0.0,75,0.00,,---,0.00,VWS V14.00,2013-06-23 02:19:00,
2013-06-22 22:24:00,78.8,70.2,29.97,SW,225,0.0,0.0,75,0.00,,---,0.00,VWS V14.00,2013-06-23 02:24:00,
2013-06-22 22:29:00,78.8,70.2,29.97,SW,225,0.0,0.0,75,0.00,,---,0.00,VWS V14.00,2013-06-23 02:29:00,
2013-06-22 22:34:00,78.6,70.4,29.97,South,180,0.0,0.0,76,0.00,,---,0.00,VWS V14.00,2013-06-23 02:34:00,
2013-06-22 22:39:00,78.6,70.4,29.97,West,270,0.0,0.0,76,0.00,,---,0.00,VWS V14.00,2013-06-23 02:39:00,
2013-06-22 22:44:00,78.6,70.4,29.97,SW,225,0.0,0.0,76,0.00,,---,0.00,VWS V14.00,2013-06-23 02:44:00,
2013-06-22 22:49:00,78.6,70.4,29.97,WSW,248,0.0,0.0,76,0.00,,---,0.00,VWS V14.00,2013-06-23 02:49:00,
2013-06-22 22:54:00,78.4,70.2,29.97,WSW,248,0.0,0.0,76,0.00,,---,0.00,VWS V14.00,2013-06-23 02:54:00,
2013-06-22 22:59:00,78.3,70.5,29.97,SE,135,0.0,0.0,77,0.00,,---,0.00,VWS V14.00,2013-06-23 02:59:00,
2013-06-22 23:04:00,78.3,70.5,29.97,South,180,0.0,0.0,77,0.00,,---,0.00,VWS V14.00,2013-06-23 03:04:00,
2013-06-22 23:09:00,78.1,70.3,29.97,South,180,0.0,0.0,77,0.00,,---,0.00,VWS V14.00,2013-06-23 03:09:00,
2013-06-22 23:14:00,77.9,70.1,29.97,South,180,0.0,0.0,77,0.00,,---,0.00,VWS V14.00,2013-06-23 03:14:00,
2013-06-22 23:19:00,77.9,70.5,29.97,South,180,0.0,0.0,78,0.00,,---,0.00,VWS V14.00,2013-06-23 03:19:00,
2013-06-22 23:24:00,77.7,70.3,29.97,WSW,248,0.0,0.0,78,0.00,,---,0.00,VWS V14.00,2013-06-23 03:24:00,
2013-06-22 23:29:00,77.5,70.1,29.97,WSW,248,0.0,0.0,78,0.00,,---,0.00,VWS V14.00,2013-06-23 03:29:00,
2013-06-22 23:34:00,77.5,70.1,29.97,WSW,248,0.0,0.0,78,0.00,,---,0.00,VWS V14.00,2013-06-23 03:34:00,
2013-06-22 23:39:00,77.4,70.0,30.00,SSW,202,2.2,2.2,78,0.00,,---,0.00,VWS V14.00,2013-06-23 03:39:00,
2013-06-22 23:44:00,77.2,70.2,30.00,SW,225,0.0,0.0,79,0.00,,---,0.00,VWS V14.00,2013-06-23 03:44:00,
2013-06-22 23:49:00,77.2,70.2,30.00,WSW,248,0.0,0.0,79,0.00,,---,0.00,VWS V14.00,2013-06-23 03:49:00,
2013-06-22 23:54:00,77.0,69.6,29.97,WSW,248,0.0,0.9,78,0.00,,---,0.00,VWS V14.00,2013-06-23 03:54:00,
2013-06-22 23:59:00,77.0,69.6,29.97,SW,225,0.0,0.0,78,0.00,,---,0.00,VWS V14.00,2013-06-23 03:59:00,